G7NPW-1 Weather Reports


time (UTC)temp
C
wind
direction
speed
KPH
gust
KPH
rain 1hr
cm
rain 24hr
cm
rain mn
cm
humidity
%
barometer
mb
20260903153504 22 250 27.4 27.4 0.00 0.00 0.00 56 1013.9
20260903153004 22 250 27.4 27.4 0.00 0.00 0.00 56 1013.9
20260903152504 22 250 27.4 27.4 0.00 0.00 0.00 56 1013.9
20260903151004 22 250 27.4 27.4 0.00 0.00 0.00 56 1013.9
20260903150504 22 250 27.4 32.2 0.00 0.00 0.00 56 1013.9
20260903150004 22 250 27.4 32.2 0.00 0.00 0.00 56 1013.9
20260903145503 22 260 32.2 32.2 0.00 0.00 0.00 53 1013.9
20260903144004 22 260 32.2 32.2 0.00 0.00 0.00 53 1013.9
20260903143504 22 260 32.2 32.2 0.00 0.00 0.00 53 1013.9
20260903142504 22 260 32.2 32.2 0.00 0.00 0.00 53 1013.9
20260903142004 22 260 32.2 32.2 0.00 0.00 0.00 53 1013.9
20260903141504 22 260 32.2 32.2 0.00 0.00 0.00 53 1013.9
20260903140004 22 260 32.2 32.2 0.00 0.00 0.00 53 1013.9
20260903135004 22 240 29.0 29.0 0.00 0.00 0.00 56 1014.9
20260903134504 22 240 29.0 29.0 0.00 0.00 0.00 56 1014.9
20260903133004 22 240 29.0 29.0 0.00 0.00 0.00 56 1014.9
20260903131503 22 240 29.0 29.0 0.00 0.00 0.00 56 1014.9
20260903125503 22 240 29.0 29.0 0.00 0.00 0.00 56 1014.9
20260903124004 22 240 29.0 29.0 0.00 0.00 0.00 56 1014.9
20260903123004 22 240 29.0 29.0 0.00 0.00 0.00 56 1014.9
20260903122004 22 240 29.0 29.0 0.00 0.00 0.00 56 1014.9
20260903121504 22 240 29.0 29.0 0.00 0.00 0.00 56 1014.9
20260903115004 21 250 33.8 33.8 0.00 0.00 0.00 60 1014.9
20260903114004 21 250 33.8 33.8 0.00 0.00 0.00 60 1014.9
20260903113004 21 250 33.8 33.8 0.00 0.00 0.00 60 1014.9
20260903112504 21 250 33.8 33.8 0.00 0.00 0.00 60 1014.9
20260903111504 21 250 33.8 33.8 0.00 0.00 0.00 60 1014.9
20260903111004 21 250 33.8 33.8 0.00 0.00 0.00 60 1014.9
20260903110004 21 250 33.8 33.8 0.00 0.00 0.00 60 1014.9
20260903105504 20 240 29.0 29.0 0.00 0.00 0.00 68 1014.9
20260903104503 20 240 29.0 29.0 0.00 0.00 0.00 68 1014.9
20260903103504 20 240 29.0 29.0 0.00 0.00 0.00 68 1014.9
20260903102004 20 240 29.0 29.0 0.00 0.00 0.00 68 1014.9
20260903101004 20 240 29.0 29.0 0.00 0.00 0.00 68 1014.9
20260903100504 20 240 29.0 29.0 0.00 0.00 0.00 68 1014.9
20260903095504 18 240 25.7 25.7 0.00 0.00 0.00 77 1014.9
20260903092004 18 240 25.7 25.7 0.00 0.00 0.00 77 1014.9
20260903091003 18 240 25.7 25.7 0.00 0.00 0.00 77 1014.9
20260903081004 17 240 20.9 20.9 0.00 0.00 0.00 82 1012.9
20260903075004 17 240 20.9 20.9 0.00 0.00 0.00 82 1012.9
20260903072004 17 240 20.9 20.9 0.00 0.00 0.00 82 1012.9
20260903071004 17 240 20.9 20.9 0.00 0.00 0.00 82 1012.9
20260903070504 17 240 20.9 22.5 0.00 0.00 0.00 82 1012.9
20260903070004 17 240 20.9 22.5 0.00 0.00 0.00 82 1012.9
20260903065504 18 220 22.5 22.5 0.00 0.00 0.00 82 1012.9
20260903065005 18 220 22.5 22.5 0.00 0.00 0.00 82 1012.9
20260903064504 18 220 22.5 22.5 0.00 0.00 0.00 82 1012.9
20260903064005 18 220 22.5 22.5 0.00 0.00 0.00 82 1012.9
20260903063504 18 220 22.5 22.5 0.00 0.00 0.00 82 1012.9
20260903061503 18 220 22.5 22.5 0.00 0.00 0.00 82 1012.9
20260903061003 18 220 22.5 22.5 0.00 0.00 0.00 82 1012.9
20260903060007 18 220 22.5 22.5 0.00 0.00 0.00 82 1012.9
20260902210004 18 220 22.5 24.1 0.00 0.00 0.00 82 1012.9
20260902203504 20 210 24.1 24.1 0.00 0.00 0.00 82 1012.9
20260902201003 20 210 24.1 24.1 0.00 0.00 0.00 82 1012.9
20260902200004 20 210 24.1 25.7 0.00 0.00 0.00 82 1012.9
20260902194004 18 200 25.7 25.7 0.00 0.00 0.00 93 1012.9
20260902192005 18 200 25.7 25.7 0.00 0.00 0.00 93 1012.9
20260902191504 18 200 25.7 25.7 0.00 0.00 0.00 93 1012.9
20260902190004 18 200 25.7 25.7 0.00 0.00 0.00 93 1012.9
20260902184504 18 200 22.5 22.5 0.00 0.00 0.00 88 1012.9
20260902184005 18 200 22.5 22.5 0.00 0.00 0.00 88 1012.9
20260902182004 18 200 22.5 22.5 0.00 0.00 0.00 88 1012.9
20260902180504 18 200 22.5 24.1 0.00 0.00 0.00 88 1012.9
20260902180006 18 200 22.5 24.1 0.00 0.00 0.00 88 1012.9
20260902175504 18 200 24.1 24.1 0.00 0.00 0.00 93 1012.9
20260902175004 18 200 24.1 24.1 0.00 0.00 0.00 93 1012.9
20260902173504 18 200 24.1 24.1 0.00 0.00 0.00 93 1012.9
20260902173004 18 200 24.1 24.1 0.00 0.00 0.00 93 1012.9
20260902172004 18 200 24.1 24.1 0.00 0.00 0.00 93 1012.9
20260902170004 18 200 24.1 27.4 0.00 0.00 0.00 93 1012.9
20260902163004 17 190 27.4 27.4 0.00 0.00 0.00 93 1012.9
20260902160504 17 190 27.4 27.4 0.00 0.00 0.00 93 1012.9